Theta_e
316 316 317 316 315 316 316 315 315 315 315 314 314 313 312 312 312 311 311 310 310 310 310 310 311 311 311 310 310 308 308 308 309 308 309 311 316 317 321 327 331 330 329 328 328 329 328 329 329 328 327 326 325 324 323 322 321 322 321 321 320 319 319 319 318 318 318 318 318 318 318 318 318 318 319 319 319 319 319 319 319 318 319 320 320
316 316 316 315 314 314 313 313 313 312 313 312 311 312 311 311 310 311 311 310 310 309 309 309 310 310 310 309 308 307 306 306 306 306 306 310 312 314 317 321 327 332 329 326 328 328 327 329 330 330 329 327 326 324 323 322 321 321 321 320 319 319 318 318 318 318 317 317 317 317 317 317 317 317 317 317 318 318 318 318 318 318 319 318 318
317 317 316 315 314 313 312 312 311 311 312 311 310 311 311 311 311 310 310 310 309 308 309 309 308 308 306 307 305 304 304 304 304 305 306 308 310 311 313 316 320 326 330 328 327 328 328 328 328 327 326 326 327 325 323 322 321 320 319 320 320 319 318 318 317 317 317 318 317 316 316 315 315 316 316 316 316 316 317 317 317 317 317 318 317
317 317 316 314 312 311 309 310 309 309 310 308 308 309 310 309 309 309 309 310 309 308 309 308 307 306 304 305 303 304 302 302 304 304 304 306 307 308 309 311 314 318 323 329 330 325 327 327 327 326 325 323 324 324 323 321 320 320 319 319 320 319 318 317 316 316 317 317 316 316 315 315 316 315 314 314 315 315 315 316 317 316 316 316 316
317 316 313 313 310 309 308 308 306 306 306 306 306 305 306 306 306 307 308 308 308 307 308 308 306 303 304 303 303 302 301 302 303 303 303 303 303 304 306 308 308 312 315 320 327 328 325 325 327 327 326 324 323 323 324 322 321 321 320 320 320 320 319 318 316 316 316 317 316 316 315 315 315 314 313 313 313 314 314 315 315 315 315 315 315
314 313 313 310 308 307 306 305 304 305 304 304 303 303 304 305 304 306 306 307 307 306 306 306 304 302 303 300 301 299 298 302 301 301 302 302 301 301 302 304 305 307 309 314 316 321 324 326 326 325 325 323 323 323 324 323 322 321 321 321 320 320 321 320 318 317 317 316 316 316 315 315 314 313 314 313 312 312 314 313 314 314 315 316 314
312 312 310 308 306 305 305 305 303 303 302 301 302 301 303 303 302 304 302 303 304 304 306 305 304 305 304 303 302 299 298 299 298 298 299 299 298 299 300 300 302 304 304 304 308 313 318 321 324 325 324 324 324 324 324 324 323 322 321 321 321 321 321 321 320 319 318 317 315 316 317 316 315 313 314 314 313 312 312 312 312 313 314 315 315
312 310 309 308 307 305 304 304 303 303 301 300 301 301 300 300 300 303 302 300 302 301 302 303 303 304 301 302 302 301 300 297 298 298 296 296 296 297 297 297 298 299 302 300 301 305 313 318 321 324 325 325 325 325 324 323 324 323 323 323 322 322 322 321 321 320 319 318 317 316 318 317 316 315 314 315 315 314 313 313 313 313 314 314 315
312 310 309 307 307 305 304 304 303 303 302 300 300 300 300 300 297 300 302 299 301 300 299 301 301 301 299 299 299 301 301 302 300 300 298 298 296 296 297 296 297 301 296 296 298 298 306 314 319 320 318 322 324 325 325 325 324 324 324 324 323 324 323 323 323 321 320 319 319 318 318 318 318 317 316 316 315 315 315 315 314 314 314 314 314
311 310 307 306 305 304 302 302 301 302 301 300 300 298 299 299 297 295 300 300 299 300 299 298 300 298 297 297 297 297 297 298 298 299 301 300 299 300 300 298 297 297 297 295 294 296 300 304 312 312 310 317 320 321 323 323 324 325 326 326 325 325 324 324 323 323 321 320 320 320 320 319 319 318 318 317 317 316 316 316 315 315 315 314 315
310 308 306 305 304 303 302 300 300 299 299 299 298 298 297 296 297 294 296 299 299 299 298 298 298 296 294 292 293 293 294 294 295 296 296 298 298 299 297 297 297 297 297 296 294 295 298 298 300 300 303 313 318 317 318 320 321 323 324 325 326 326 325 324 324 324 324 322 321 320 321 320 320 319 319 319 319 318 318 317 317 317 317 316 316
308 307 306 304 303 302 302 300 299 299 299 299 298 297 296 295 295 296 294 293 294 297 296 294 291 291 291 289 288 291 292 292 293 293 293 296 296 296 298 294 294 294 295 295 294 294 295 295 297 298 297 305 312 316 316 318 318 319 320 323 325 325 324 326 326 325 325 324 323 322 322 321 321 321 321 320 320 320 320 319 319 319 319 319 318
306 305 304 302 302 301 301 299 299 299 300 300 299 298 297 296 294 295 295 293 291 293 294 296 294 290 288 287 288 288 290 290 291 292 293 293 292 294 293 295 294 296 295 293 294 294 294 295 295 295 296 296 298 307 311 313 314 317 320 322 323 324 325 325 325 324 324 325 324 325 325 323 322 322 322 322 322 321 321 321 320 320 320 320 320
304 304 302 302 300 300 300 299 298 298 299 298 297 296 296 295 294 293 293 294 291 292 294 296 291 291 291 290 287 285 288 288 289 291 292 292 293 294 295 295 296 295 293 294 295 296 294 293 293 294 294 295 295 294 297 300 303 313 317 320 322 324 324 325 326 324 324 324 324 325 325 325 324 324 324 323 323 322 323 322 322 323 322 322 322
305 303 304 303 301 301 300 299 298 297 296 296 296 296 296 295 294 295 291 290 290 292 294 295 288 287 285 285 283 290 287 286 287 288 289 291 291 293 293 294 295 294 292 292 293 293 293 293 294 294 294 295 295 295 296 298 298 303 309 314 318 320 322 324 325 325 324 324 324 325 324 324 325 325 324 324 324 324 324 324 324 323 324 324 324
306 305 305 304 302 302 301 300 299 297 297 295 295 296 295 294 293 293 293 292 289 290 291 290 289 287 287 283 280 282 281 281 284 286 288 288 289 291 291 292 291 289 288 291 290 290 290 290 292 293 294 294 294 295 294 294 297 300 301 304 309 313 318 320 321 322 323 323 323 324 324 325 324 324 325 325 325 325 324 324 324 325 324 324 325
307 306 305 304 303 302 301 300 299 298 298 296 296 296 296 295 294 293 293 294 290 289 291 289 289 289 286 283 283 283 281 282 284 286 286 287 286 287 289 290 290 289 289 288 287 286 287 287 287 288 289 290 292 293 294 294 294 294 297 300 304 307 311 316 317 318 318 319 319 320 321 322 322 323 324 324 324 325 325 325 325 325 325 325 325
307 306 305 303 303 302 301 300 299 298 299 298 297 296 296 294 294 294 294 294 294 291 289 290 289 289 288 285 285 285 284 285 284 284 285 286 286 286 285 286 286 287 287 286 287 287 287 288 287 288 288 289 289 289 289 290 291 293 293 295 302 305 308 310 313 315 316 317 317 317 317 317 318 320 321 322 324 323 324 323 323 324 324 324 324
307 307 306 304 304 303 302 301 300 300 298 298 297 297 296 295 294 293 294 294 292 290 290 290 289 291 291 289 288 287 286 284 284 284 284 285 285 286 287 285 285 285 286 286 286 286 286 287 287 287 287 288 288 288 288 289 292 293 294 296 301 303 305 307 308 310 311 312 313 314 315 316 317 317 317 318 320 320 322 323 323 323 323 323 323
308 307 306 305 304 304 303 303 302 301 299 300 298 297 296 296 294 293 292 293 292 291 290 290 290 289 290 288 287 287 286 285 282 284 283 284 286 284 287 286 287 286 285 285 285 285 285 285 286 286 286 286 287 287 288 288 288 288 290 295 299 302 303 304 306 307 307 307 309 310 311 312 314 314 316 317 317 317 319 319 320 321 323 323 323
308 307 307 306 304 304 304 303 303 301 300 301 299 298 296 296 295 293 292 292 292 291 291 290 290 289 289 286 286 285 285 284 282 282 281 281 282 282 286 286 287 288 286 286 286 285 285 285 285 286 286 286 286 286 286 286 287 288 291 294 298 300 302 303 304 306 307 306 306 307 309 310 311 312 313 314 315 316 316 317 318 319 320 321 322
307 307 306 306 305 305 305 304 303 302 300 301 300 298 298 297 297 296 295 294 292 291 291 291 291 290 291 290 287 285 286 286 284 280 280 280 282 282 282 285 286 285 285 286 287 286 286 285 285 285 285 285 285 285 285 286 287 287 290 295 298 300 302 303 305 305 306 307 308 307 308 308 310 311 312 313 313 314 315 315 316 317 317 317 317
306 306 306 306 306 305 305 305 304 301 301 302 300 299 299 298 298 298 297 295 293 292 292 291 290 289 290 290 290 289 288 285 283 280 279 279 280 281 281 281 283 285 286 285 287 287 287 286 286 284 285 285 285 285 285 285 288 290 293 296 298 300 302 303 304 306 306 307 307 307 308 308 308 309 311 312 314 314 315 315 316 316 317 317 318
305 305 305 306 305 305 304 304 303 302 302 303 302 301 300 299 299 298 297 296 295 293 292 291 290 289 289 288 289 289 287 285 285 285 284 281 283 281 281 281 283 282 283 284 284 285 287 287 285 284 285 285 286 286 286 287 287 292 291 293 296 299 300 302 304 305 306 306 307 307 307 307 308 309 310 311 312 313 313 314 315 315 316 317 317
303 304 304 305 304 305 305 304 303 302 302 303 302 302 301 300 299 298 298 296 294 292 291 291 290 289 288 287 287 287 287 285 286 285 284 283 284 281 281 281 284 282 280 282 285 281 283 284 285 283 283 284 287 286 286 287 286 291 292 289 294 299 300 301 303 304 305 305 306 306 306 306 307 308 309 309 310 311 312 312 313 313 314 314 314
303 303 305 305 304 305 305 305 304 303 302 302 302 302 301 300 299 297 296 294 293 292 292 291 290 289 289 287 286 286 285 285 285 285 283 284 283 285 281 280 280 280 279 281 280 287 286 284 285 283 282 282 283 282 283 284 284 291 291 287 290 296 299 302 303 304 306 307 305 306 306 306 306 307 307 308 308 310 310 310 310 310 311 311 312
304 305 304 305 305 305 305 305 304 302 301 301 301 301 300 299 298 297 295 293 292 292 291 289 290 288 287 288 287 286 286 286 285 285 286 286 286 285 284 283 280 279 279 278 279 282 285 284 283 285 283 283 282 282 283 283 288 292 288 284 284 292 296 300 302 303 304 304 304 304 305 305 306 306 306 306 307 307 308 308 309 310 310 310 311
305 305 305 305 304 304 304 304 304 302 301 301 300 300 299 298 296 296 294 293 292 291 291 290 290 289 288 288 288 287 286 286 285 285 285 285 284 284 287 285 284 280 278 280 279 283 281 285 284 282 282 282 283 283 287 286 286 291 286 283 283 284 293 297 299 301 302 303 304 304 304 304 304 305 305 305 306 306 305 305 305 305 306 306 307
305 304 304 304 305 305 304 304 304 302 301 300 299 299 298 297 296 295 294 292 291 291 290 290 290 289 289 288 288 287 285 284 284 284 284 284 284 285 287 286 284 282 275 279 280 280 285 282 285 285 280 282 285 284 284 283 287 287 283 283 284 284 292 298 299 301 302 302 303 304 302 302 302 303 303 304 304 304 303 304 304 304 304 305 305
304 303 304 304 304 301 303 303 303 302 301 300 298 298 297 296 296 295 295 291 291 290 289 290 289 289 288 288 287 287 285 285 284 284 284 284 284 284 284 284 284 283 278 280 281 280 283 282 282 286 282 284 283 285 282 282 288 285 282 282 282 283 293 294 297 299 300 301 301 302 302 301 301 302 303 303 303 303 302 302 302 303 303 304 305
301 302 303 303 303 302 303 302 302 301 300 298 297 296 296 295 294 295 293 292 291 289 289 289 289 289 288 287 285 286 285 285 284 283 283 284 283 283 282 283 284 283 281 279 281 282 281 283 283 281 282 283 280 280 280 280 284 285 280 281 281 290 290 289 295 297 298 299 300 300 301 301 301 301 302 302 301 301 301 301 301 302 302 302 303
301 301 302 302 302 301 301 301 299 298 298 297 295 294 294 295 294 294 291 291 290 289 288 288 288 288 287 287 285 286 284 284 283 283 282 282 283 282 283 283 282 282 283 279 281 284 283 280 282 283 281 283 280 282 283 282 282 287 281 281 282 287 283 283 290 292 296 297 299 299 299 300 301 300 301 301 300 300 300 300 300 300 300 300 301
299 298 299 300 299 300 299 298 297 296 295 295 294 293 293 293 292 292 289 289 289 288 288 286 286 287 287 287 285 284 284 285 283 283 282 282 282 283 282 282 282 282 284 281 281 282 283 281 281 283 283 282 283 281 282 282 283 283 285 282 281 281 282 282 282 288 293 296 297 298 299 299 300 300 299 299 298 299 300 300 300 300 299 300 301
296 297 297 297 296 296 296 295 295 294 294 293 292 292 292 291 290 290 288 288 288 288 287 287 286 287 287 287 285 284 284 285 283 283 283 282 282 281 282 283 282 283 283 282 281 282 283 282 283 282 282 283 284 281 284 284 285 282 283 283 283 280 281 281 280 280 291 295 297 298 298 298 298 297 297 298 298 299 298 299 299 299 299 299 300
294 295 296 295 294 293 294 294 293 293 293 293 292 291 292 291 290 289 288 288 288 287 287 287 286 286 286 287 285 284 284 284 283 283 282 282 282 282 281 282 282 282 282 282 280 281 282 282 283 282 282 283 283 284 281 282 282 282 281 281 281 282 280 280 280 279 289 295 296 297 296 296 296 297 297 297 297 297 298 298 298 298 299 299 299
293 293 293 293 292 292 292 292 292 293 292 292 291 291 291 290 289 288 287 288 288 288 288 287 286 286 287 286 285 284 284 284 283 282 282 282 282 282 281 280 282 281 281 280 280 279 281 283 282 283 283 283 283 282 283 282 283 282 281 281 280 280 279 279 278 279 285 293 294 295 295 295 296 296 296 296 296 296 296 297 297 298 298 299 299
292 291 291 292 292 292 292 292 291 291 291 291 290 290 290 289 289 288 287 287 287 287 287 287 287 286 286 287 285 284 285 285 283 283 282 282 282 282 282 281 281 280 279 279 278 276 278 281 280 281 282 282 282 282 282 284 281 279 279 281 282 281 279 279 278 281 289 292 293 293 293 294 295 295 296 296 296 296 297 297 297 297 297 297 298
291 291 290 291 291 291 292 291 291 291 290 290 290 289 289 288 288 288 287 287 287 286 286 286 285 286 286 286 285 285 286 286 284 284 283 283 282 282 281 281 281 280 280 278 278 278 278 277 280 281 281 283 282 281 280 281 280 279 278 280 278 278 279 280 281 282 281 282 281 283 288 289 291 293 294 295 295 295 295 295 295 295 296 297 297
290 290 290 290 290 291 291 290 290 290 289 289 289 289 288 288 288 287 286 286 286 286 285 285 285 285 286 286 285 285 286 286 285 284 283 283 283 282 282 281 281 282 281 280 279 279 278 277 277 278 279 278 280 281 279 278 280 279 278 277 279 280 279 280 283 283 283 284 286 290 289 290 292 290 292 293 294 294 294 294 295 295 294 295 295
290 290 289 290 290 290 290 290 290 289 288 288 288 288 288 287 287 287 287 286 285 285 284 285 285 285 285 285 285 285 286 285 285 284 284 284 283 282 281 281 281 282 281 279 279 278 277 277 278 278 276 278 279 279 278 279 279 278 276 277 278 280 281 280 280 282 282 280 281 281 286 287 287 289 291 291 292 293 293 293 292 293 293 294 294
290 290 289 289 289 289 289 289 288 288 288 288 288 288 287 287 287 287 286 286 285 285 284 284 283 283 283 283 284 284 284 286 287 286 286 286 284 282 279 281 281 281 278 278 277 277 276 278 278 277 279 278 277 277 278 275 274 278 278 276 278 278 279 279 281 281 280 280 281 281 280 282 285 285 284 284 285 288 288 291 290 290 291 293 294
289 289 289 289 289 288 288 288 287 287 288 288 288 290 290 288 287 287 286 286 286 285 284 283 282 282 282 283 283 285 286 286 286 287 288 288 287 286 282 282 281 280 279 279 278 279 280 279 281 281 280 281 280 280 278 277 278 278 278 277 278 278 278 278 279 279 283 280 280 282 282 283 285 285 284 285 286 285 284 285 284 288 291 294 295
288 288 288 288 288 288 288 287 287 287 288 288 290 292 292 292 288 287 287 286 285 285 285 284 283 282 282 282 282 284 285 285 285 288 289 289 288 288 286 286 285 283 280 279 279 279 280 281 280 279 280 280 281 281 280 280 280 280 279 278 277 277 278 278 276 280 279 282 283 282 282 282 283 284 285 285 284 285 285 284 290 293 294 294 295
287 287 287 288 288 288 288 287 287 288 288 289 292 292 293 293 290 287 287 286 286 285 285 285 284 283 282 282 282 283 283 284 284 286 288 289 289 288 288 289 288 288 286 283 280 278 279 279 278 280 281 282 282 282 280 279 279 279 279 280 280 279 278 277 278 277 280 282 283 282 282 281 281 284 285 285 284 285 286 290 293 294 294 294 295
287 287 287 287 287 287 287 287 287 287 287 290 292 292 292 292 292 289 287 286 286 285 285 285 284 284 283 283 282 283 284 285 285 284 285 286 288 289 288 288 288 289 289 289 287 283 280 280 280 282 285 284 282 282 283 282 283 283 284 284 281 279 279 278 278 278 280 281 283 282 280 280 280 283 284 286 283 284 286 290 292 293 294 294 295
286 286 286 286 287 286 287 287 287 287 286 289 292 292 292 292 292 290 286 286 286 285 285 285 284 284 284 284 283 282 282 283 283 283 283 283 283 284 283 282 281 286 289 289 289 288 285 284 284 284 284 284 283 283 282 285 283 284 283 280 278 277 277 278 278 279 280 282 283 281 280 280 281 281 284 286 285 285 285 289 293 293 294 294 294
286 287 286 286 286 286 286 287 287 286 286 290 291 292 292 292 292 290 285 286 285 285 284 284 284 284 284 284 284 283 283 283 283 283 283 282 281 281 280 278 280 281 284 286 287 286 286 284 283 282 283 285 286 286 285 284 284 283 281 280 280 280 282 281 281 280 281 281 281 279 277 280 281 281 284 285 285 286 287 289 292 293 293 294 294
287 287 286 286 286 285 286 286 286 286 286 290 291 292 292 292 292 286 285 285 284 284 283 283 283 284 284 284 283 283 283 282 285 288 285 282 280 279 279 279 279 280 282 285 286 286 284 284 284 284 283 284 288 284 284 283 284 283 283 283 283 282 281 282 281 278 278 278 280 280 279 280 282 281 284 286 285 286 287 287 290 292 292 293 294
286 286 286 286 286 286 285 285 285 286 285 289 291 292 292 292 290 285 285 284 284 283 283 283 283 283 283 283 283 283 283 283 286 289 288 285 280 280 280 279 279 279 281 282 288 290 290 290 290 290 290 290 290 290 290 291 288 285 283 281 280 280 279 277 277 275 277 279 280 282 282 280 281 282 283 285 284 285 285 286 287 290 291 292 293
285 286 286 286 286 286 285 285 286 285 285 288 291 291 292 292 288 285 285 284 284 283 283 283 283 283 283 285 284 283 283 283 288 290 290 285 280 280 280 279 278 279 280 280 283 286 289 289 289 289 289 288 289 290 290 290 289 289 281 279 278 277 276 276 277 278 279 281 281 282 279 281 280 281 280 283 283 284 284 285 286 287 289 289 291
286 286 286 286 285 285 285 285 286 286 285 287 291 291 291 291 288 286 285 284 283 283 283 282 282 282 282 284 285 284 284 285 289 290 290 286 281 281 281 280 280 279 280 280 281 280 278 277 278 280 280 284 283 281 282 288 289 288 282 282 281 280 279 279 279 279 278 279 281 281 277 275 278 280 278 277 277 282 284 284 285 286 286 286 286
Wind_Speed
8 7 7 7 6 7 7 6 6 6 7 6 7 6 6 6 7 7 6 6 6 6 6 6 6 6 6 5 5 5 5 5 5 5 4 3 5 7 11 10 7 10 13 15 16 16 15 15 16 16 17 17 16 15 14 13 13 13 13 12 11 10 10 10 10 9 9 9 8 9 9 10 10 10 9 8 8 8 8 9 9 8 8 8 8
8 7 7 7 7 6 6 6 6 5 6 7 3 5 5 3 4 5 7 6 6 7 7 6 6 5 5 6 5 4 4 6 5 5 3 4 5 7 12 11 13 9 11 14 15 15 16 15 15 16 16 15 16 14 14 14 13 12 12 12 11 10 9 9 8 8 8 7 8 7 7 8 8 8 8 9 9 7 7 7 7 7 8 8 8
8 7 7 7 6 6 6 6 6 5 6 7 5 6 6 5 4 4 6 7 6 6 7 7 6 5 4 6 4 4 4 4 5 4 4 5 5 5 8 12 13 12 11 10 16 16 14 15 15 15 15 14 17 16 15 14 12 12 11 12 12 10 9 8 7 7 8 8 7 6 7 6 5 6 6 7 6 7 7 6 6 6 7 7 7
10 8 7 7 6 6 6 6 6 5 5 5 5 5 5 6 4 3 3 6 7 6 6 7 6 6 4 5 4 4 3 3 4 4 4 4 5 5 6 7 11 12 12 14 10 9 16 14 14 13 12 13 14 14 14 12 12 11 11 11 11 10 9 8 7 6 6 6 6 5 5 5 4 4 4 3 5 6 5 6 6 4 5 5 6
9 9 7 7 7 7 7 6 6 5 5 5 5 4 4 5 4 3 5 6 7 6 5 7 7 5 5 4 5 4 3 3 3 3 4 4 4 4 6 5 6 9 11 11 11 10 6 11 14 14 15 15 13 13 15 15 14 12 12 12 11 11 10 9 8 7 7 6 5 5 3 4 3 2 3 2 3 4 5 5 5 5 3 3 3
7 7 7 7 7 6 7 6 6 6 6 6 6 5 6 6 5 5 5 7 7 6 7 7 5 5 5 4 4 3 3 3 2 2 2 3 3 4 4 5 5 6 6 8 9 9 10 7 5 6 12 12 12 12 14 14 13 12 12 12 11 10 10 10 10 9 8 7 6 6 5 4 4 3 3 3 2 0 3 3 4 4 5 4 1
7 7 7 7 7 7 7 6 6 6 7 6 7 5 6 6 6 6 4 5 5 5 6 7 7 7 6 5 6 4 3 3 2 2 2 2 2 3 3 4 5 5 4 5 6 8 7 8 6 2 4 9 10 9 11 12 11 11 11 12 12 11 11 10 10 10 9 9 7 8 8 7 5 4 5 4 3 1 1 2 3 4 4 4 5
7 7 7 6 7 7 6 6 6 6 6 5 6 7 5 5 3 6 7 4 7 4 5 6 6 6 4 5 5 5 5 4 3 2 2 3 3 3 3 3 3 3 4 4 4 4 6 6 6 7 5 4 7 8 8 10 12 12 12 12 12 12 12 11 11 11 10 10 10 10 10 9 8 7 5 5 5 4 3 3 3 3 4 4 5
8 7 8 7 7 7 5 7 6 7 6 5 6 6 7 6 3 3 5 5 6 5 4 6 5 5 4 4 3 4 4 5 4 4 3 3 3 3 3 3 3 4 3 4 4 3 5 6 7 6 7 6 4 4 2 7 9 12 12 10 11 14 13 13 12 11 11 11 11 11 11 10 10 8 7 7 6 6 6 5 5 4 5 5 4
8 7 7 7 7 7 5 5 5 7 6 5 5 3 5 7 6 3 5 7 6 7 5 4 5 5 4 4 3 3 3 3 3 3 5 5 4 4 3 4 4 4 4 4 3 3 3 3 5 5 6 5 5 5 4 2 1 5 8 12 11 9 12 12 12 12 12 12 12 13 12 11 11 10 9 8 8 8 8 7 7 7 6 6 6
9 8 9 8 8 8 7 6 6 6 7 6 6 4 4 4 8 4 3 4 7 6 6 6 5 5 5 3 3 3 3 3 3 3 3 3 3 3 3 3 3 3 3 3 2 2 2 2 2 2 2 3 3 1 2 4 5 6 5 5 7 8 6 7 8 11 13 14 14 14 13 13 12 12 11 10 10 10 10 9 9 9 9 9 9
8 8 9 8 8 7 8 7 7 7 7 7 6 7 7 7 7 8 7 4 3 7 7 7 5 6 4 4 3 3 3 2 3 2 2 2 2 2 3 2 3 3 2 2 2 1 1 0 0 0 0 1 1 1 2 3 4 7 8 9 9 8 7 9 11 9 9 13 16 16 15 14 13 14 13 13 12 11 11 12 12 11 11 11 11
8 9 9 9 8 7 8 7 7 8 8 8 8 7 6 6 6 6 8 6 2 3 4 8 8 4 3 3 2 2 2 1 1 1 1 1 1 2 2 2 2 1 1 2 3 2 3 3 2 1 1 0 2 3 4 4 5 7 10 11 12 11 11 11 11 10 9 9 10 13 13 14 15 15 14 14 13 13 13 12 13 13 13 13 12
9 9 10 10 9 9 9 9 8 8 7 7 7 6 7 7 7 5 2 6 3 5 6 7 2 5 5 1 1 2 1 1 1 1 0 0 1 1 1 2 1 0 1 1 0 0 1 2 2 2 2 1 1 2 3 3 4 7 10 12 13 13 14 14 14 14 13 12 11 11 11 11 11 14 14 14 14 14 15 15 14 15 14 14 13
11 10 11 11 11 10 10 9 9 8 8 8 8 8 8 9 9 9 7 2 4 2 6 4 5 4 3 4 1 1 4 2 1 2 1 1 1 1 1 2 2 0 1 0 0 1 1 0 0 0 1 1 1 2 2 3 3 5 7 9 11 13 14 15 16 16 16 16 15 15 15 13 13 12 13 15 15 15 15 16 16 16 17 16 16
12 12 11 11 12 12 10 10 10 9 10 10 10 10 9 8 7 8 9 8 4 2 0 5 6 9 4 3 2 4 1 5 6 3 0 1 2 3 2 1 0 0 1 1 1 0 1 0 1 1 1 1 1 2 3 3 5 7 7 8 8 10 13 14 14 15 15 16 16 17 17 16 16 16 15 14 15 17 17 18 17 17 16 16 17
12 12 11 12 11 10 10 10 10 9 8 9 10 11 11 9 10 9 10 11 7 4 1 3 8 4 8 5 2 0 4 1 3 1 2 0 1 1 0 0 0 0 1 2 1 2 2 2 2 2 3 4 5 5 3 2 2 3 4 7 8 8 10 12 14 14 14 14 14 15 15 16 16 16 17 17 17 17 18 18 17 17 17 16 17
10 11 10 9 10 10 10 11 10 10 10 10 9 8 8 10 10 11 9 7 11 9 4 1 4 5 2 2 2 4 5 2 2 1 2 1 1 1 1 1 2 2 2 3 3 3 3 3 2 3 1 1 1 1 1 2 3 4 4 4 6 7 8 8 11 12 13 13 13 13 13 14 14 15 16 17 17 17 18 18 18 19 18 17 17
11 11 10 11 11 10 10 10 12 11 9 9 9 10 10 9 7 8 9 8 8 10 11 8 3 1 2 2 2 2 4 6 3 2 3 2 3 1 0 1 1 2 3 4 3 2 2 2 2 1 1 1 1 2 3 3 4 4 6 7 7 7 8 8 9 11 12 12 13 13 13 13 14 14 15 15 16 17 16 17 17 18 18 19 19
12 11 11 11 11 11 11 9 10 11 10 10 11 9 7 5 7 7 7 8 9 11 10 9 12 6 3 3 3 3 4 5 3 5 6 6 0 2 1 1 1 2 3 3 2 3 3 2 1 2 1 2 3 3 3 3 3 3 4 5 6 7 7 8 8 8 9 10 11 12 13 13 14 14 14 15 16 16 17 17 17 17 17 18 18
12 12 11 12 11 12 12 11 9 10 10 9 8 9 11 11 9 7 8 6 6 7 10 11 9 9 8 2 3 4 5 5 3 4 4 3 0 1 1 1 1 0 1 1 2 2 3 3 1 2 2 3 2 3 3 3 3 3 4 5 5 6 7 7 7 6 6 7 9 11 11 12 12 13 13 14 15 16 17 17 18 18 18 18 19
10 11 11 11 11 10 11 12 11 10 10 10 9 10 9 10 11 10 10 10 6 8 9 9 8 7 10 9 6 4 4 2 2 3 4 3 5 3 2 2 2 1 3 4 4 2 0 1 2 2 3 3 2 2 2 2 3 3 4 5 5 6 6 7 7 7 7 6 7 8 9 10 11 11 12 13 14 15 15 16 17 18 18 19 19
10 9 11 11 10 11 12 12 10 9 10 10 10 11 10 11 10 10 10 11 9 8 7 8 7 8 7 9 10 11 10 8 8 4 5 2 3 1 0 3 1 0 1 4 4 4 3 1 2 3 3 3 2 2 2 3 3 4 6 6 7 7 7 7 7 7 6 6 7 7 8 9 10 11 12 13 14 15 15 16 17 17 18 18 19
11 10 10 10 9 10 9 9 9 9 11 10 10 10 9 10 10 10 9 9 9 9 9 9 9 8 7 7 8 8 7 6 8 8 9 6 8 5 6 1 0 2 3 5 3 3 4 3 2 3 3 2 3 2 2 2 3 5 4 4 5 5 5 6 6 6 6 6 6 7 8 8 9 10 11 13 14 15 15 16 16 17 17 18 19
11 12 12 13 10 10 10 10 8 8 9 10 9 10 10 10 10 10 10 10 9 9 9 10 11 10 10 7 7 7 8 5 8 8 6 8 8 6 1 1 2 0 2 2 2 5 3 3 4 3 2 2 2 3 3 3 3 3 5 4 4 3 4 6 7 7 6 7 7 7 8 9 9 10 11 12 14 16 16 17 17 18 19 19 20
13 13 13 13 11 11 12 11 11 10 9 9 10 10 10 9 10 10 10 9 8 9 9 8 8 8 8 8 7 8 7 7 8 9 9 8 6 10 5 3 3 1 1 3 3 0 1 4 5 3 4 5 4 4 4 4 4 6 6 5 6 7 7 8 9 8 8 9 10 10 10 9 10 11 10 11 13 14 15 17 18 19 20 20 21
15 14 13 14 14 11 10 11 11 11 11 11 9 9 10 9 9 10 9 9 9 9 8 8 9 8 7 8 8 6 8 7 8 8 9 9 9 9 10 9 2 4 2 1 2 1 1 2 3 5 4 4 4 3 3 3 3 6 6 5 5 8 9 8 9 10 10 11 12 13 13 13 13 15 14 13 11 12 13 14 15 17 18 19 20
13 13 14 14 13 12 11 11 11 10 11 12 11 9 9 9 8 9 10 7 9 10 9 8 9 9 8 6 7 7 6 7 7 7 7 7 8 8 9 9 12 3 1 1 1 1 1 2 1 2 1 2 3 3 4 5 6 8 7 5 5 5 7 8 9 10 10 10 9 10 11 10 11 11 12 13 13 13 15 17 17 18 18 17 18
13 13 14 13 13 13 13 12 12 11 11 11 11 10 10 9 9 9 10 8 9 11 8 10 8 8 7 8 8 7 6 4 4 6 6 5 7 8 7 9 7 12 5 4 4 3 1 1 2 0 2 4 6 5 6 5 7 8 5 6 6 6 9 10 11 11 11 11 10 11 12 13 13 12 11 11 12 14 15 17 17 17 18 18 19
12 12 14 15 14 14 13 13 12 12 12 11 10 10 10 9 10 10 9 9 9 8 8 9 8 8 7 7 5 6 5 6 6 5 6 6 7 7 7 5 6 9 6 9 6 3 3 0 1 1 2 6 5 6 4 5 6 5 5 5 4 4 7 7 8 8 8 9 9 9 10 11 12 12 13 13 14 15 16 17 16 17 18 18 19
12 12 13 14 14 14 14 13 12 13 11 11 10 10 10 10 9 9 7 9 10 9 8 9 8 9 8 8 5 6 6 6 5 4 4 5 5 6 5 5 4 6 6 6 7 4 2 3 1 0 1 2 2 2 3 4 4 4 4 4 4 5 4 4 4 5 6 7 7 8 8 9 9 10 10 10 11 13 14 15 14 15 17 19 20
13 14 14 15 14 15 13 14 13 12 12 10 10 10 10 10 9 9 8 9 9 10 8 7 8 8 9 8 7 7 6 5 5 5 5 4 6 6 6 5 4 4 5 4 7 8 6 3 3 1 1 1 0 1 0 1 2 2 1 2 3 5 4 5 7 9 8 10 10 11 12 11 10 10 10 10 13 14 15 14 14 15 17 18 20
13 13 14 15 15 15 14 13 14 13 12 11 10 10 10 9 9 9 8 9 10 8 8 8 6 9 9 9 8 6 7 7 6 5 5 5 5 6 6 6 6 4 6 4 6 5 1 1 1 1 3 2 1 3 2 0 4 4 5 5 5 5 5 6 5 7 6 7 8 9 9 9 9 10 11 11 13 15 15 14 15 16 17 18 19
13 14 14 12 12 13 13 13 13 12 12 12 10 10 11 10 10 7 9 9 9 8 8 9 8 8 9 10 8 7 7 8 6 6 7 7 7 7 6 8 7 7 5 5 4 6 7 1 1 2 1 5 2 1 4 4 5 4 5 6 5 3 3 3 3 4 6 6 7 7 8 8 9 11 12 12 13 14 15 15 16 17 18 19 19
12 14 14 13 13 12 12 12 12 12 13 12 11 11 11 11 11 8 8 10 10 10 10 10 10 8 9 10 9 8 7 8 7 7 7 7 6 8 7 6 7 7 5 4 5 5 6 4 4 6 4 1 2 0 2 1 1 0 2 3 3 4 2 1 3 3 6 7 7 9 9 10 11 12 13 15 15 15 16 15 16 17 18 19 20
14 12 13 14 12 13 13 12 12 13 13 12 12 12 13 12 11 11 9 9 9 9 10 9 10 10 11 10 10 10 9 10 8 8 7 7 8 7 7 5 7 7 5 4 4 5 5 7 4 2 1 3 1 1 1 1 1 1 1 2 1 2 4 3 4 4 5 7 8 8 9 10 11 11 12 14 14 15 16 16 17 17 18 20 20
14 12 12 13 14 13 14 14 14 14 14 13 13 12 11 11 11 11 10 9 9 9 9 9 9 10 10 11 10 10 11 11 9 9 8 8 7 8 7 6 6 5 3 4 3 3 4 4 3 0 1 2 1 0 0 1 2 2 1 1 2 2 3 5 4 5 6 7 8 8 9 10 11 11 12 13 14 14 15 15 16 16 17 18 20
14 13 14 12 14 15 13 13 13 13 12 12 13 13 12 11 11 11 10 9 9 8 8 8 8 8 9 10 11 11 12 13 12 10 9 10 8 8 7 6 6 5 5 3 3 3 3 2 3 0 1 1 0 1 0 3 1 1 2 3 3 4 3 3 4 3 3 2 2 2 5 6 8 10 12 14 15 16 17 18 18 18 17 16 16
15 14 13 14 12 13 13 12 13 13 13 12 12 12 12 11 12 11 11 10 9 8 8 8 8 8 9 9 11 11 12 12 12 12 11 9 9 9 9 9 8 8 7 6 5 4 4 2 0 1 1 1 1 2 1 1 2 3 2 1 4 6 3 1 7 6 4 4 3 4 5 6 9 8 12 13 14 17 18 17 17 17 16 16 17
16 15 15 15 13 12 13 12 12 11 12 11 11 11 11 12 12 12 12 12 11 9 8 8 8 8 9 9 10 10 10 10 11 10 11 11 9 8 8 9 9 10 9 7 6 5 4 3 4 3 1 2 1 1 1 0 1 2 2 1 2 5 7 5 2 5 4 3 4 4 6 7 9 12 14 13 15 16 16 15 16 15 15 16 17
12 13 13 12 13 12 11 12 11 10 12 12 11 12 12 12 11 13 13 13 12 11 10 9 8 8 7 7 8 8 8 11 13 12 12 11 12 11 9 10 10 10 8 7 7 6 4 5 3 1 1 2 3 3 3 2 3 4 3 1 0 0 0 2 6 5 3 3 1 1 3 4 8 7 6 8 6 9 11 11 10 13 12 16 18
12 12 12 12 13 13 13 12 11 11 11 10 13 19 16 14 13 11 11 12 13 12 12 11 9 8 8 7 7 12 12 13 14 14 14 12 12 11 13 12 11 10 9 9 8 7 6 6 6 5 6 6 5 5 5 4 3 2 0 1 1 1 1 1 2 2 4 3 4 4 3 3 7 9 5 8 7 5 6 6 6 9 13 17 18
13 12 13 14 13 13 14 13 13 12 10 10 18 16 13 15 14 13 14 12 11 12 13 13 13 12 9 8 7 10 11 11 11 14 14 12 12 9 10 10 10 13 11 9 8 7 8 7 5 5 6 6 6 5 4 5 4 4 3 3 1 1 2 4 3 7 5 7 4 3 2 1 6 10 10 7 5 6 6 4 12 17 17 17 19
12 12 13 14 13 12 12 12 12 12 11 14 14 13 13 14 15 12 11 12 12 12 13 13 11 11 11 10 9 8 9 9 9 10 12 14 13 13 12 11 10 10 11 10 9 7 7 7 7 7 6 6 4 5 5 3 3 2 2 0 0 2 2 2 1 2 6 5 8 9 4 3 3 9 10 9 4 6 7 13 18 17 16 16 18
13 15 14 13 13 13 13 14 13 12 10 15 14 21 20 16 13 14 10 11 12 12 12 13 13 13 11 11 10 9 8 13 10 8 9 9 11 13 13 12 11 11 10 11 10 10 8 8 7 7 6 5 6 6 5 2 0 2 2 2 1 2 1 0 2 2 3 4 8 9 8 1 1 6 11 10 4 5 8 13 17 18 19 18 18
13 13 13 15 13 14 14 15 14 12 11 15 19 21 20 16 13 12 10 12 11 11 12 13 12 13 13 13 12 10 9 10 9 9 9 8 8 7 6 5 5 8 11 13 13 14 11 8 7 7 7 7 7 3 1 0 2 2 3 3 2 1 1 2 3 3 3 3 6 7 10 1 2 5 11 11 4 6 7 10 16 16 18 19 19
15 16 16 16 15 14 13 12 12 12 11 17 20 21 21 17 15 11 9 9 9 9 9 9 11 12 12 12 12 13 12 11 10 11 10 9 8 7 7 5 6 6 6 7 8 7 7 6 7 8 6 5 2 2 2 2 2 3 3 4 4 3 3 3 4 3 3 3 5 3 6 1 1 4 11 11 7 8 7 12 17 15 16 18 20
9 8 7 9 12 13 13 14 13 13 11 18 21 21 21 17 17 11 9 10 10 10 10 10 9 10 10 12 12 12 12 11 12 16 12 10 9 11 9 6 6 5 6 7 9 8 7 6 6 5 4 4 4 3 3 3 4 4 4 2 2 1 2 5 6 1 2 3 5 6 7 6 0 4 11 10 7 9 10 9 16 17 16 18 18
13 13 14 14 13 14 15 14 14 13 12 18 21 22 21 19 15 10 10 9 9 10 11 10 11 11 12 13 12 13 13 12 15 19 17 14 11 13 10 9 8 7 8 6 9 10 9 9 9 8 8 7 7 8 9 10 5 3 0 3 5 2 5 6 5 2 5 1 5 7 6 7 3 4 9 9 7 10 11 12 12 13 17 18 18
15 14 13 12 12 13 15 16 16 15 13 18 23 23 22 23 16 14 12 11 11 11 9 9 9 10 12 17 14 13 13 12 17 19 20 16 13 14 12 12 11 10 8 6 6 7 10 7 5 3 4 5 7 8 7 7 6 3 1 4 2 0 4 4 7 6 5 3 6 6 3 7 3 2 4 9 10 8 8 9 12 13 15 15 19
16 14 13 13 12 11 13 15 17 17 14 18 24 24 24 24 17 12 11 10 11 10 10 10 8 8 9 12 17 12 12 13 19 19 19 15 13 14 14 13 13 12 11 9 9 8 7 4 2 2 1 3 2 1 1 2 5 4 1 3 3 4 6 6 6 6 8 3 3 1 1 2 3 5 1 5 7 11 9 7 10 10 8 9 10
Wind_Direction
150 150 146 139 133 131 127 123 124 123 118 122 133 142 148 147 145 141 130 125 117 109 108 107 114 121 124 123 117 112 109 105 99 90 75 75 82 67 64 59 54 147 141 145 139 143 139 143 144 139 137 139 139 136 133 128 128 126 122 119 115 115 113 117 115 110 97 91 85 80 73 64 58 65 66 74 81 69 68 65 58 52 50 55 50
147 149 145 140 136 127 120 128 128 126 118 119 133 128 135 142 135 139 136 130 122 117 114 115 114 119 121 121 116 120 121 116 109 102 93 86 73 74 70 62 59 49 138 139 146 147 145 142 142 143 140 139 137 132 132 130 128 129 125 122 124 121 119 111 106 108 107 101 87 84 80 68 54 50 57 52 47 50 72 64 57 59 54 41 37
146 152 148 142 136 134 131 132 129 141 146 141 143 141 139 146 156 155 140 129 121 121 119 118 117 111 116 115 121 112 107 107 109 111 101 93 87 81 70 66 62 61 57 131 148 148 145 143 142 143 144 146 142 137 135 130 128 131 129 130 130 128 125 123 117 112 110 96 94 87 97 87 78 68 51 41 47 39 38 50 76 54 48 43 33
153 153 146 135 133 130 135 135 140 140 145 135 137 136 149 143 139 132 124 115 117 113 119 120 119 120 111 108 106 105 107 110 110 110 111 102 99 94 89 80 75 66 63 64 70 135 146 145 147 146 146 149 144 140 140 132 138 138 138 135 139 142 141 140 135 137 127 125 118 105 108 102 92 81 52 49 38 19 29 25 47 48 56 45 38
157 148 145 139 141 140 143 143 146 143 138 135 124 120 118 116 111 117 115 113 115 114 110 114 121 116 109 105 104 96 90 95 97 103 108 104 101 105 105 101 89 77 72 67 70 65 124 141 150 152 149 152 149 148 145 147 148 150 152 153 155 155 157 156 155 157 155 146 153 142 136 141 121 124 79 78 37 22 14 1 14 27 63 68 61
141 140 143 139 136 134 137 138 142 140 131 129 130 138 132 128 137 128 128 127 128 131 124 116 113 115 112 115 100 107 106 92 88 94 100 98 96 91 87 91 93 94 82 80 73 62 66 70 76 146 161 155 155 154 159 157 154 157 159 159 162 164 165 166 167 170 171 166 172 173 168 166 166 173 147 102 98 29 346 346 340 347 352 346 97
137 138 139 135 130 131 130 135 131 129 130 139 132 129 133 140 143 126 122 110 116 126 126 128 132 133 139 134 129 114 85 92 66 60 42 44 57 69 63 66 92 91 87 85 71 64 54 51 61 106 141 146 153 161 158 163 163 162 170 169 168 176 173 173 174 179 184 184 189 194 184 179 185 184 188 183 187 221 249 282 316 323 330 334 342
140 137 132 134 132 133 134 132 130 118 119 123 121 127 127 120 122 136 129 125 125 114 120 129 132 132 135 133 138 133 127 117 104 71 51 61 41 43 42 41 45 72 75 74 71 54 47 42 47 51 83 104 154 172 177 171 177 174 179 183 182 181 182 184 186 186 190 194 195 203 199 196 195 196 194 204 221 231 239 232 251 286 279 314 316
144 140 133 137 132 129 138 130 129 126 119 121 122 134 134 126 104 119 130 138 136 133 122 130 124 117 111 113 115 127 133 145 142 134 100 94 85 71 70 61 54 61 56 49 41 34 37 48 36 45 44 38 72 81 91 213 191 190 187 189 191 192 190 192 197 194 197 200 204 207 206 204 207 208 205 206 210 228 230 230 239 244 262 261 270
147 141 133 134 132 130 131 130 130 124 128 125 121 117 125 132 119 87 128 128 139 144 144 127 117 108 90 82 74 78 84 93 106 117 132 138 132 129 133 127 108 104 89 88 79 69 65 53 65 64 61 50 39 23 15 18 262 224 229 215 206 211 204 207 209 205 201 204 208 213 212 208 212 214 213 212 216 221 227 231 235 242 242 243 245
149 145 138 142 141 143 144 149 137 133 130 130 132 132 128 133 132 107 78 121 147 145 138 124 107 98 89 70 71 72 74 69 98 100 89 115 120 103 96 77 89 82 98 85 81 98 107 95 116 120 109 102 66 18 1 344 337 321 301 254 256 261 265 214 223 220 219 213 212 215 215 213 216 219 218 217 221 224 225 230 234 237 238 236 238
152 148 140 142 144 151 149 154 147 141 140 143 152 153 155 143 140 131 117 72 78 130 125 110 84 85 83 63 70 81 49 49 64 66 85 102 100 105 97 96 85 103 88 88 81 71 60 42 63 102 90 54 58 359 338 331 315 304 297 300 295 284 253 232 229 232 219 215 219 217 219 219 220 223 220 219 223 230 231 229 232 236 240 242 236
153 149 148 147 151 153 153 159 155 154 157 164 160 159 156 150 142 134 136 126 82 115 134 127 120 70 48 39 11 352 78 76 57 45 47 51 71 102 112 96 90 93 94 115 128 143 161 164 164 161 188 330 315 325 316 310 306 295 291 287 283 279 281 283 275 266 247 240 229 228 230 229 229 227 226 225 227 230 236 238 239 240 243 243 242
161 154 153 154 155 162 166 165 162 162 159 150 153 146 146 147 146 119 104 138 136 158 160 121 114 155 136 115 357 341 341 6 314 282 193 59 86 102 92 127 149 140 42 55 59 119 168 178 177 192 218 218 267 306 315 321 323 309 302 295 290 288 283 280 276 273 277 277 265 254 253 253 241 238 241 244 245 245 244 250 251 249 253 258 255
165 162 161 164 164 165 171 163 165 156 149 156 157 157 163 161 164 153 136 82 93 156 166 145 127 109 102 91 214 182 309 336 280 248 230 186 123 165 179 181 213 95 85 83 4 335 331 18 43 336 305 290 299 293 305 306 294 296 296 294 293 292 291 288 281 277 276 279 282 280 278 273 267 259 254 254 254 252 253 256 261 258 258 263 264
170 170 169 170 169 171 166 168 169 168 163 161 166 167 166 166 160 157 147 137 141 182 166 146 130 134 148 174 196 141 212 253 211 275 296 250 206 222 177 223 325 22 58 308 271 347 331 76 209 217 231 241 257 248 250 249 258 271 273 277 284 287 286 285 288 290 288 286 284 283 281 279 280 278 273 264 257 258 259 265 270 270 268 267 266
174 174 171 171 172 167 168 169 167 170 163 164 170 175 175 169 162 156 168 158 153 136 174 162 154 162 134 119 84 141 217 227 120 279 30 50 344 316 302 184 219 196 209 259 240 227 214 224 221 195 198 203 209 215 230 272 300 300 298 298 292 289 291 290 289 289 289 289 291 293 294 295 292 286 280 278 274 267 266 270 272 272 271 272 269
175 172 171 168 172 173 171 167 168 170 173 173 172 164 167 170 178 166 164 175 153 142 140 276 167 145 134 138 170 173 172 210 106 166 33 56 343 33 184 216 188 212 235 243 254 245 213 239 226 244 295 340 346 320 228 230 226 240 251 262 270 273 277 282 288 292 296 296 296 294 293 294 297 300 297 291 284 282 281 280 281 281 279 273 271
178 177 174 175 174 173 175 179 169 174 171 167 171 179 175 176 164 165 171 153 145 153 162 164 91 71 92 96 96 71 125 126 184 120 79 338 8 325 349 2 237 193 228 235 251 285 280 244 254 292 296 241 235 235 237 233 232 233 241 250 260 265 271 276 284 292 299 303 305 306 305 304 302 300 298 297 298 296 291 285 280 279 280 282 281
179 181 176 175 175 175 177 183 181 168 168 176 178 175 162 154 172 170 154 165 164 157 162 164 166 174 129 110 71 57 55 79 113 152 149 143 269 336 155 18 58 206 226 262 268 248 287 319 275 269 241 236 216 226 234 234 234 236 244 251 251 256 264 268 271 277 289 297 304 307 310 311 311 310 308 306 304 302 301 299 296 291 286 281 279
183 180 180 178 178 177 176 180 185 169 170 175 176 169 169 164 166 162 166 172 175 167 159 179 173 161 144 113 105 71 57 65 76 55 120 111 269 231 244 324 30 328 351 249 241 232 238 262 274 257 254 264 238 229 230 240 252 249 255 264 264 271 279 283 284 278 277 289 301 307 312 314 315 315 316 315 312 311 310 309 307 306 305 302 295
184 183 179 182 178 176 180 180 181 173 170 174 169 168 168 172 173 172 170 171 176 169 177 177 183 160 169 154 143 105 64 57 48 72 48 82 164 204 216 130 133 291 345 351 343 318 246 246 285 290 287 275 278 258 258 266 271 286 290 289 292 296 297 300 298 300 301 297 297 302 309 316 319 320 321 321 321 319 318 316 315 313 311 310 309
180 183 182 179 184 180 182 183 177 176 170 164 172 173 171 172 175 172 175 174 173 173 174 183 171 163 169 167 158 156 172 172 181 165 130 128 77 121 341 247 171 27 311 328 313 298 312 322 283 293 278 278 286 293 297 297 312 308 302 308 307 305 305 304 302 299 298 298 299 301 308 312 315 319 320 322 325 327 326 324 321 319 317 315 313
180 180 183 181 181 182 186 181 174 176 175 173 172 175 173 172 174 178 179 180 174 173 172 174 174 168 175 176 175 170 167 149 162 156 149 172 155 163 172 198 68 227 291 317 303 337 333 326 297 278 310 356 356 339 335 332 331 324 322 311 315 316 315 317 309 300 301 311 314 312 314 314 316 317 321 326 328 330 330 328 327 324 322 320 318
184 180 186 181 180 182 178 179 177 185 181 168 174 171 173 177 177 178 179 179 178 175 173 179 172 173 181 184 166 170 183 169 147 157 155 147 146 118 246 70 134 11 311 22 339 322 317 332 339 350 22 34 9 6 358 13 347 340 356 356 347 348 357 354 351 347 342 343 337 339 335 335 330 329 331 331 333 334 332 331 329 328 327 325 323
177 186 181 180 184 186 181 180 179 176 179 176 173 173 174 178 178 178 179 179 173 178 180 172 175 176 161 166 178 181 183 166 154 144 151 149 149 142 148 33 61 19 306 2 308 79 13 10 7 25 49 53 39 31 25 11 18 13 21 18 14 13 7 2 2 356 351 352 356 353 351 347 345 344 342 338 335 335 336 334 333 331 328 326 323
181 181 177 180 182 183 185 180 178 181 178 173 181 176 176 175 180 178 174 173 174 174 179 168 175 173 170 169 171 182 173 173 156 168 162 165 150 156 142 129 47 29 357 328 346 349 161 331 6 61 67 79 67 55 34 23 35 39 46 37 21 15 9 2 359 357 354 354 356 356 355 354 352 349 348 347 345 342 337 334 331 328 325 323 322
183 176 177 178 179 180 180 184 182 182 184 173 173 178 179 177 175 174 177 172 170 176 179 174 179 176 174 165 158 186 176 171 170 157 164 152 144 150 142 144 139 125 348 20 358 323 209 145 57 97 47 58 49 31 11 32 25 15 37 29 24 17 10 4 359 358 359 359 357 360 357 352 349 345 343 343 344 344 343 340 336 332 329 324 320
175 176 174 179 179 179 180 184 184 183 186 175 173 179 179 179 177 177 179 176 172 182 172 179 181 172 172 170 176 165 170 157 147 150 148 141 144 148 155 159 155 131 151 150 226 172 227 178 133 282 341 14 19 9 15 20 14 17 21 29 23 14 2 4 5 5 6 4 2 0 360 356 353 351 347 344 342 340 338 335 332 330 328 326 322
173 175 174 177 180 180 181 182 184 184 186 176 173 180 178 182 182 183 180 169 175 175 176 172 173 168 166 168 160 151 153 154 155 152 149 149 140 145 153 158 140 142 157 146 188 212 191 256 205 132 354 27 11 5 18 1 3 20 29 26 18 2 1 7 2 2 360 358 356 352 351 350 346 342 341 341 340 337 333 331 330 327 325 323 322
170 170 174 178 179 182 181 182 182 185 183 177 174 178 179 180 182 182 175 171 172 177 179 170 169 163 167 169 158 148 151 152 138 137 135 134 139 136 131 131 150 136 145 124 125 239 156 164 263 258 73 15 357 3 357 353 352 22 25 9 354 344 3 7 359 355 349 346 344 340 336 335 336 336 332 328 327 325 323 322 321 321 322 322 320
174 173 177 179 180 180 182 180 181 181 178 178 176 177 178 183 179 181 177 174 174 177 176 174 158 164 158 161 164 153 149 136 134 138 143 135 131 129 131 138 144 144 133 114 127 172 205 169 170 257 193 210 2 112 343 330 316 354 360 350 336 349 2 358 356 357 357 352 348 344 342 338 332 334 335 332 328 323 318 315 314 316 318 317 315
172 175 179 181 180 182 180 179 179 178 174 175 178 174 179 180 182 179 170 177 176 177 164 169 161 157 159 157 162 155 148 141 147 143 137 139 128 129 140 136 148 172 141 134 128 144 120 174 132 190 240 140 216 201 176 31 1 350 5 5 7 5 354 354 348 347 342 335 328 327 328 329 327 327 327 322 316 314 312 311 314 316 314 312 311
171 177 180 179 179 177 178 178 178 175 172 175 175 174 180 177 181 178 172 177 176 172 169 168 165 163 155 155 161 155 159 145 147 150 147 143 144 138 155 149 158 179 177 126 158 146 186 118 195 282 273 204 148 252 66 23 356 3 355 339 339 346 334 334 335 309 302 296 301 308 311 308 306 308 311 313 314 315 317 317 316 316 313 312 309
176 175 176 175 176 176 177 178 175 173 175 177 176 177 181 177 178 179 177 176 176 174 177 174 168 161 155 159 162 155 151 142 154 156 153 156 152 150 164 162 162 181 196 156 131 164 155 193 200 199 197 148 105 189 66 76 275 353 296 302 303 322 331 278 271 268 273 271 287 294 301 305 308 314 320 325 325 323 321 319 317 315 315 314 310
172 176 170 170 170 174 177 178 177 175 177 177 177 181 180 178 176 176 176 180 179 180 180 173 164 165 164 156 162 157 152 149 159 158 167 156 160 158 159 175 157 173 177 164 149 139 168 159 226 180 166 88 10 17 42 26 341 308 218 275 350 332 312 295 254 258 269 276 285 294 305 310 306 303 309 315 316 315 314 314 316 317 320 319 314
172 166 171 168 170 174 179 180 177 178 181 178 177 179 178 176 173 171 174 179 180 180 178 173 169 165 164 165 160 157 157 156 165 165 166 167 165 154 160 162 152 151 141 154 153 124 146 146 158 287 77 74 129 55 170 9 4 359 339 266 257 267 272 257 260 255 257 282 302 308 307 309 313 312 311 311 311 308 306 307 310 313 314 310 308
169 169 168 173 174 178 179 178 176 178 177 179 180 179 176 172 170 169 169 173 177 173 171 167 166 169 165 162 164 164 165 168 175 169 166 168 160 157 154 153 143 138 136 141 136 123 113 123 136 98 32 116 15 299 270 115 146 299 311 292 298 265 242 275 252 235 230 242 281 299 311 312 308 305 305 313 317 314 314 312 311 310 306 300 297
167 169 170 170 175 174 177 174 177 176 177 179 179 178 175 172 170 166 165 166 168 170 172 168 167 168 167 166 168 172 173 173 168 171 168 164 167 167 162 157 154 146 149 161 156 126 114 111 34 145 157 307 181 225 299 171 214 194 191 243 218 221 228 341 342 333 335 333 333 329 308 302 311 314 313 311 311 310 310 312 312 307 302 298 294
169 170 171 171 171 171 174 177 176 171 171 175 177 176 174 172 169 169 167 166 166 168 167 167 166 171 173 172 174 177 174 171 169 170 166 167 162 161 164 154 157 151 154 154 133 124 122 141 192 216 195 200 307 280 350 40 338 321 247 192 1 344 351 345 325 314 312 345 329 337 334 329 324 321 319 313 313 310 307 310 307 297 292 294 296
167 167 165 164 162 168 169 170 168 170 174 179 179 175 172 173 171 169 169 167 166 166 166 167 167 164 168 171 174 176 175 172 172 170 174 166 162 165 176 162 160 152 145 139 138 131 135 150 231 331 147 236 240 213 226 212 185 209 235 155 157 191 174 337 308 283 250 292 285 42 348 318 314 315 314 304 300 300 295 293 294 296 295 300 292
164 163 162 165 166 167 167 168 168 172 181 181 183 180 176 172 171 170 169 171 168 167 166 166 167 168 169 170 175 175 171 170 171 172 172 170 179 177 166 164 157 149 147 142 148 155 154 177 202 187 199 217 224 208 199 217 214 211 169 130 82 259 131 179 254 292 302 353 353 350 38 335 319 302 287 286 294 285 283 298 283 287 289 295 295
162 165 163 165 170 169 169 169 172 178 182 184 183 180 174 170 172 170 171 172 171 168 170 170 173 171 169 169 168 173 169 170 172 173 176 167 172 160 160 155 156 150 147 149 159 158 168 183 178 185 201 209 220 210 202 218 211 192 197 182 159 128 75 49 356 313 312 0 334 327 13 28 318 305 306 294 280 286 288 271 295 293 289 295 298
164 162 168 172 169 166 167 170 176 181 185 184 177 173 170 164 170 172 171 170 172 175 176 175 171 167 166 165 170 167 173 171 167 172 173 173 169 156 144 137 134 138 147 153 155 166 176 172 181 199 194 202 206 204 223 200 214 213 215 172 130 104 82 66 309 285 275 354 329 320 330 125 282 295 300 299 302 281 281 297 303 296 290 288 292
162 167 171 167 170 170 170 173 180 181 184 181 172 182 180 171 160 166 173 172 174 178 177 175 171 169 165 165 164 170 169 168 167 168 163 165 159 148 140 136 139 141 149 153 157 169 168 166 173 195 193 206 208 217 197 204 184 320 325 347 54 54 97 222 244 273 301 357 322 307 306 123 210 279 293 292 284 263 280 299 301 294 290 289 289
165 166 167 171 171 174 177 178 178 176 176 184 179 181 180 171 160 162 174 173 178 179 178 176 172 170 170 167 164 168 168 167 165 161 158 154 149 137 129 130 145 167 168 177 176 174 172 175 175 194 203 193 208 194 214 341 319 287 342 319 320 350 316 244 230 243 264 292 280 297 295 98 167 282 291 293 292 268 261 285 291 286 288 291 291
172 174 174 176 177 176 176 174 173 175 181 175 178 179 179 171 162 158 169 172 174 178 179 179 176 171 169 169 170 168 166 165 166 160 152 151 143 140 145 160 173 183 186 191 192 189 185 179 177 182 197 184 175 224 262 239 224 247 245 259 262 255 258 264 277 253 280 229 238 256 270 349 100 302 284 293 304 288 283 296 299 293 291 293 292
171 162 167 167 169 176 177 175 173 176 173 173 175 177 176 163 159 158 169 173 175 175 177 179 177 174 171 170 167 168 165 162 163 155 149 146 148 156 165 175 187 194 203 199 187 180 178 178 170 172 179 182 188 185 200 217 235 248 260 288 315 344 326 297 282 306 250 264 210 225 267 285 208 266 284 292 302 299 303 302 305 304 299 294 287
170 175 175 179 179 176 174 177 178 176 171 176 175 175 174 163 159 168 170 175 176 179 184 181 179 177 179 177 175 167 164 167 165 160 156 149 159 165 173 180 187 184 203 211 186 174 172 168 171 175 192 212 231 237 241 240 214 190 55 328 298 312 303 288 289 294 272 202 256 221 250 281 262 249 282 293 318 310 308 307 305 306 305 296 292
174 178 174 176 178 178 177 180 181 174 175 177 175 175 172 171 169 171 174 175 180 182 183 186 182 183 186 183 175 166 165 169 169 167 163 157 167 173 175 176 182 188 200 193 177 182 181 174 164 168 207 226 238 240 242 249 259 290 194 247 238 347 276 259 277 277 279 239 244 218 223 246 274 285 316 309 309 290 295 294 298 298 303 301 297
176 170 171 172 172 177 182 183 183 177 171 176 176 175 175 174 166 172 169 175 176 185 181 184 187 184 184 184 176 167 166 166 171 173 168 165 173 178 177 175 183 190 196 178 171 169 169 161 172 162 211 219 222 206 255 267 266 274 235 216 222 227 252 259 263 287 292 266 250 190 157 290 4 291 358 318 305 302 295 294 292 290 294 294 294